Terminal Aerodrome Forecast
Issued by NWS

Home | Current Version | Previous Version | Text Only | Print | Product List | Glossary On
Versions: 1 2 3 4 5 6 7 8 9 10 11 12 13 14 15 16 17 18 19 20 21 22 23 24 25 26 27 28 29 30 31 32 33 34 35 36 37
000
FTUS45 KGGW 270500 RRA
TAFGDV
TAF
KGDV 270548Z 2706/2806 VRB06KT 6SM -SHSN FEW024 OVC080
     FM270730 VRB06KT 5SM -SN OVC024
     FM271200 12008KT 3SM -FZRASN OVC010
     FM271800 19008KT P6SM VCSH OVC010
     FM280000 25009KT P6SM BKN080
      AMD LTD TO CLD VIS AND WIND=

USA.gov is the U.S. government's official web portal to all federal, state and local government web resources and services.